Weather History for Alpine, TX

Change the Weather History Date:

Monday, June 17, 2013

  Actual Average (KMRF) Record (KMRF)
Temperature  
Mean Temperature 78 °F -  
Max Temperature 91 °F 85 °F 98 °F (2008)
Min Temperature 66 °F 57 °F 48 °F (1997)
Cooling Degree Days 12    
Growing Degree Days 28 (Base 50)    
Moisture  
Dew Point 60 °F    
Average Humidity 62    
Maximum Humidity 82    
Minimum Humidity 32    
Precipitation  
Precipitation 0.06 in - - ()
Sea Level Pressure  
Sea Level Pressure 30.15 in    
Wind  
Wind Speed 7 mph (SSW)    
Max Wind Speed 20 mph    
Max Gust Speed 28 mph    
Visibility 10 miles    
Events Thunderstorm    
Averages and records for this station are not official NWS values.
T = Trace of Precipitation, MM = Missing Value Source: NWS Daily Summary

Daily Weather History Graph

Daily Weather History Graph

Search for Another Location

Airport:

Trip Planner

Search our weather history database for the weather conditions in past years. The results will help you decide how hot, cold, wet, or windy it might be!

Date:

Astronomy

Jun. 17, 2013 Rise Set
Actual Time 6:52 AM CDT 8:58 PM CDT
Civil Twilight 6:24 AM CDT 9:26 PM CDT
Nautical Twilight 5:51 AM CDT 10:00 PM CDT
Astronomical Twilight 5:15 AM CDT 10:36 PM CDT
Moon 3:00 PM CDT (6/17) 2:07 AM CDT (6/17)
Length of Visible Light 15h 01m
Length of Day
14h 06m
First Quarter, 60% of the Moon is Illuminated
Jun 17
First Quarter
Jun 23
Full
Jun 29
Last Quarter
Jul 8
New
Jul 15
First Quarter

Hourly Weather History & Observations

Time (CDT) Temp. Heat Index Dew Point Humidity Pressure Visibility Wind Dir Wind Speed Gust Speed Precip Events Conditions
12:15 AM 72.1 °F - 62.2 °F 71% 30.16 in 10.0 mi SSW 8.1 mph - N/A   Clear
12:35 AM 71.6 °F - 60.1 °F 67% 30.16 in 10.0 mi SSW 5.8 mph - N/A   Clear
12:55 AM 72.1 °F - 59.9 °F 65% 30.15 in 10.0 mi SSW 9.2 mph - N/A   Clear
1:15 AM 71.6 °F - 60.8 °F 69% 30.15 in 10.0 mi SW 5.8 mph - N/A   Clear
1:35 AM 72.7 °F - 59.4 °F 63% 30.14 in 10.0 mi WSW 10.4 mph - N/A   Clear
1:55 AM 73.2 °F - 58.3 °F 59% 30.14 in 10.0 mi SW 9.2 mph - N/A   Clear
2:15 AM 72.7 °F - 58.1 °F 60% 30.13 in 10.0 mi SW 9.2 mph - N/A   Clear
2:35 AM 72.5 °F - 57.2 °F 59% 30.12 in 10.0 mi SSW 9.2 mph - N/A   Clear
2:55 AM 71.4 °F - 58.5 °F 64% 30.13 in 10.0 mi SW 8.1 mph - N/A   Clear
3:15 AM 71.8 °F - 58.1 °F 62% 30.13 in 10.0 mi SSE 6.9 mph - N/A   Clear
3:35 AM 72.0 °F - 59.7 °F 65% 30.12 in 10.0 mi South 11.5 mph - N/A   Clear
3:55 AM 72.7 °F - 61.3 °F 67% 30.11 in 10.0 mi SW 10.4 mph - N/A   Clear
4:15 AM 71.8 °F - 60.4 °F 67% 30.11 in 10.0 mi SW 6.9 mph - N/A   Clear
4:35 AM 70.3 °F - 61.7 °F 74% 30.11 in 10.0 mi Calm Calm - N/A   Clear
4:55 AM 71.1 °F - 61.7 °F 72% 30.12 in 10.0 mi WNW 4.6 mph - N/A   Clear
5:15 AM 71.6 °F - 61.3 °F 70% 30.11 in 10.0 mi WSW 6.9 mph - N/A   Clear
5:35 AM 71.8 °F - 60.6 °F 68% 30.14 in 10.0 mi North 9.2 mph - N/A   Scattered Clouds
5:55 AM 71.8 °F - 59.9 °F 66% 30.14 in 10.0 mi North 3.5 mph - N/A   Scattered Clouds
6:15 AM 69.8 °F - 61.2 °F 74% 30.15 in 10.0 mi ESE 3.5 mph - N/A   Clear
6:35 AM 69.6 °F - 61.3 °F 75% 30.15 in 10.0 mi Calm Calm - N/A   Clear
6:55 AM 69.1 °F - 61.2 °F 76% 30.15 in 10.0 mi South 4.6 mph - N/A   Clear
7:15 AM 68.4 °F - 60.8 °F 77% 30.15 in 10.0 mi SSW 6.9 mph - N/A   Clear
7:35 AM 68.9 °F - 60.6 °F 75% 30.15 in 10.0 mi SW 3.5 mph - N/A   Clear
7:55 AM 70.7 °F - 60.8 °F 71% 30.16 in 10.0 mi SW 4.6 mph - N/A   Clear
8:15 AM 74.3 °F - 60.6 °F 62% 30.16 in 10.0 mi Calm Calm - N/A   Clear
8:35 AM 76.1 °F - 61.3 °F 60% 30.16 in 10.0 mi Calm Calm - N/A   Clear
8:55 AM 77.2 °F - 61.0 °F 57% 30.16 in 10.0 mi Calm Calm - N/A   Clear
9:15 AM 78.8 °F - 61.0 °F 54% 30.16 in 10.0 mi Calm Calm - N/A   Clear
9:35 AM 79.9 °F - 59.9 °F 50% 30.17 in 10.0 mi WSW 3.5 mph - N/A   Clear
9:55 AM 81.7 °F 82.0 °F 59.5 °F 47% 30.17 in 10.0 mi Calm Calm - N/A   Clear
10:15 AM 83.3 °F 83.1 °F 58.6 °F 43% 30.17 in 10.0 mi SSW 4.6 mph - N/A   Clear
10:35 AM 84.9 °F 84.2 °F 58.1 °F 40% 30.17 in 10.0 mi SSW 4.6 mph - N/A   Clear
10:55 AM 85.5 °F 84.6 °F 57.6 °F 39% 30.16 in 10.0 mi South 3.5 mph - N/A   Clear
11:15 AM 87.6 °F 86.5 °F 57.6 °F 36% 30.16 in 10.0 mi SW 4.6 mph - N/A   Clear
11:35 AM 88.0 °F 86.3 °F 55.8 °F 33% 30.16 in 10.0 mi SW 5.8 mph - N/A   Clear
11:55 AM 88.7 °F 87.1 °F 55.9 °F 33% 30.17 in 10.0 mi SW 9.2 mph - N/A   Clear
12:15 PM 88.3 °F 86.9 °F 56.5 °F 34% 30.17 in 10.0 mi West 9.2 mph - N/A   Scattered Clouds
12:35 PM 87.8 °F 86.5 °F 57.0 °F 35% 30.17 in 10.0 mi West 8.1 mph - N/A   Scattered Clouds
12:55 PM 89.8 °F 88.1 °F 56.7 °F 32% 30.16 in 10.0 mi North 4.6 mph - N/A   Scattered Clouds
1:35 PM 86.2 °F 85.6 °F 59.0 °F 40% 30.15 in 10.0 mi NNW 10.4 mph - N/A Thunderstorm Thunderstorm
1:55 PM 78.1 °F - 53.8 °F 43% 30.15 in 7.0 mi South 16.1 mph 27.6 mph N/A Thunderstorm Overcast
2:35 PM 74.7 °F - 61.7 °F 64% 30.16 in 7.0 mi SE 9.2 mph - 0.05 in Thunderstorm Thunderstorm
2:55 PM 76.1 °F - 61.2 °F 60% 30.16 in 10.0 mi Calm Calm - 0.05 in   Mostly Cloudy
3:15 PM 75.9 °F - 65.3 °F 70% 30.15 in 10.0 mi South 6.9 mph - N/A Thunderstorm Mostly Cloudy
3:35 PM 75.2 °F - 64.9 °F 70% 30.14 in 10.0 mi South 4.6 mph - N/A Thunderstorm Thunderstorm
3:55 PM 76.1 °F - 66.6 °F 72% 30.15 in 10.0 mi SSE 9.2 mph - N/A Thunderstorm Clear
4:35 PM 72.3 °F - 62.6 °F 71% 30.16 in 10.0 mi South 9.2 mph 20.7 mph N/A Thunderstorm Mostly Cloudy
4:55 PM 73.6 °F - 63.1 °F 70% 30.15 in 10.0 mi South 9.2 mph - N/A   Overcast
5:15 PM 74.3 °F - 58.8 °F 58% 30.12 in 10.0 mi SSE 10.4 mph - N/A   Scattered Clouds
5:35 PM 73.6 °F - 58.6 °F 59% 30.12 in 10.0 mi South 17.3 mph 25.3 mph N/A   Clear
5:55 PM 73.4 °F - 57.9 °F 58% 30.11 in 10.0 mi South 13.8 mph 24.2 mph N/A   Mostly Cloudy
6:15 PM 74.7 °F - 55.6 °F 51% 30.10 in 10.0 mi SSE 16.1 mph 23.0 mph N/A   Mostly Cloudy
6:35 PM 73.4 °F - 55.9 °F 54% 30.09 in 10.0 mi SSE 19.6 mph 26.5 mph N/A   Scattered Clouds
6:55 PM 73.4 °F - 55.6 °F 54% 30.09 in 10.0 mi South 12.7 mph 27.6 mph N/A Thunderstorm Scattered Clouds
7:15 PM 76.1 °F - 54.9 °F 48% 30.13 in 10.0 mi WNW 12.7 mph 27.6 mph N/A   Mostly Cloudy
7:35 PM 71.8 °F - 59.5 °F 65% 30.13 in 10.0 mi North 3.5 mph - N/A Thunderstorm Thunderstorm
7:55 PM 70.7 °F - 60.3 °F 69% 30.12 in 10.0 mi South 3.5 mph - 0.01 in Thunderstorm Mostly Cloudy
8:15 PM 69.1 °F - 63.3 °F 82% 30.18 in 10.0 mi NW 5.8 mph - N/A   Scattered Clouds
8:35 PM 70.5 °F - 61.2 °F 72% 30.20 in 10.0 mi WNW 5.8 mph - N/A Thunderstorm Overcast
8:55 PM 69.8 °F - 61.9 °F 76% 30.20 in 10.0 mi South 4.6 mph - N/A   Overcast
9:15 PM 68.0 °F - 62.2 °F 82% 30.22 in 10.0 mi SSW 4.6 mph - N/A   Mostly Cloudy
9:35 PM 69.3 °F - 60.8 °F 74% 30.23 in 10.0 mi SW 9.2 mph - N/A   Scattered Clouds
9:55 PM 69.3 °F - 59.2 °F 70% 30.22 in 10.0 mi Calm Calm - N/A Thunderstorm Mostly Cloudy
10:15 PM 68.0 °F - 60.3 °F 76% 30.19 in 10.0 mi SE 3.5 mph - N/A Thunderstorm Scattered Clouds
10:35 PM 66.9 °F - 59.5 °F 77% 30.20 in 10.0 mi West 11.5 mph - N/A   Clear
10:55 PM 67.1 °F - 60.1 °F 78% 30.20 in 10.0 mi West 8.1 mph - N/A   Clear
11:15 PM 67.5 °F - 58.8 °F 74% 30.17 in 10.0 mi SSE 3.5 mph - N/A   Scattered Clouds
11:35 PM 66.2 °F - 59.2 °F 78% 30.15 in 10.0 mi South 3.5 mph - N/A   Clear
11:55 PM 66.2 °F - 57.7 °F 74% 30.15 in 10.0 mi SW 6.9 mph - N/A   Clear